LEMUR-2-VU (43558 NORAD) Tracking and Keplerian Element Data

This shows tracking and keplerian element data for the satellite.

Feedback or suggestion? Click here.




ElementValue
Catalog43558
NameLEMUR-2-VU
Epoch Orbit25234
Epoch Day13.90325646
Epoch Year2023
RAAN191.8392
Inclination51.6244
Eccentricity0.00036
Argument of Perigee205.9081
Mean Anonmoly154.1741
Mean Motion15.81621286
Decay Rate0.00382415
L11 43558U 18046E 23013.90325646 .00382415 00000+0 17901-2 0 9990
L22 43558 51.6244 191.8392 0003600 205.9081 154.1741 15.81621286252345



Live tracking and technical data element details for LEMUR-2-VU (NORAD 43558). LEMUR-2-VU can be tracked NOW for your location showing map with azimuth and elevation plus other details from your city location.







IsCatalogInMostPopularTable: catalog: 43558, numindb: 471
Update: records affected: 1



GetName: 43558 LEMUR-2-VU

Hit Count: updated at: Sat, 14 Mar 2026 02:17:47 GMT